| time (UTC) | temp F | wind direction | speed MPH | gust MPH | rain 1hr in | rain 24hr in | rain mn in | humidity % | barometer mb |
| 20260904210028 | 72 | 244 | 0.0 | 4.0 | 0.00 | 0.00 | 0.00 | 60 | 1021.9 |
| 20260904205826 | 72 | 247 | 0.0 | 4.0 | 0.00 | 0.00 | 0.00 | 60 | 1021.8 |
| 20260904205627 | 72 | 245 | 0.0 | 4.0 | 0.00 | 0.00 | 0.00 | 60 | 1021.9 |
| 20260904205419 | 72 | 243 | 0.0 | 10.0 | 0.00 | 0.00 | 0.00 | 60 | 1021.9 |
| 20260904205219 | 72 | 252 | 0.0 | 10.0 | 0.00 | 0.00 | 0.00 | 60 | 1021.9 |
| 20260904205014 | 72 | 250 | 0.0 | 10.0 | 0.00 | 0.00 | 0.00 | 59 | 1021.9 |
| 20260904204810 | 72 | 248 | 0.0 | 10.0 | 0.00 | 0.00 | 0.00 | 59 | 1021.9 |
| 20260904204603 | 72 | 234 | 1.0 | 10.0 | 0.00 | 0.00 | 0.00 | 59 | 1021.9 |
| 20260904204401 | 72 | 231 | 1.0 | 10.0 | 0.00 | 0.00 | 0.00 | 59 | 1021.8 |
| 20260904204153 | 72 | 245 | 1.0 | 10.0 | 0.00 | 0.00 | 0.00 | 59 | 1021.9 |
| 20260904203951 | 72 | 229 | 1.0 | 10.0 | 0.00 | 0.00 | 0.00 | 59 | 1021.8 |
| 20260904203747 | 72 | 242 | 1.0 | 10.0 | 0.00 | 0.00 | 0.00 | 59 | 1021.9 |
| 20260904203541 | 72 | 248 | 0.0 | 8.0 | 0.00 | 0.00 | 0.00 | 59 | 1021.8 |
| 20260904203339 | 72 | 247 | 0.0 | 7.0 | 0.00 | 0.00 | 0.00 | 58 | 1021.8 |
| 20260904203138 | 72 | 245 | 0.0 | 5.0 | 0.00 | 0.00 | 0.00 | 59 | 1021.9 |
| 20260904202608 | 72 | 249 | 0.0 | 5.0 | 0.00 | 0.00 | 0.00 | 58 | 1021.9 |
| 20260904202358 | 72 | 203 | 0.0 | 4.0 | 0.00 | 0.00 | 0.00 | 58 | 1021.9 |
| 20260904202148 | 72 | 242 | 0.0 | 3.0 | 0.00 | 0.00 | 0.00 | 58 | 1021.9 |
| 20260904201942 | 72 | 252 | 0.0 | 3.0 | 0.00 | 0.00 | 0.00 | 59 | 1022.0 |
| 20260904201739 | 72 | 239 | 0.0 | 3.0 | 0.00 | 0.00 | 0.00 | 58 | 1021.9 |
| 20260904201537 | 72 | 236 | 0.0 | 3.0 | 0.00 | 0.00 | 0.00 | 58 | 1021.8 |
| 20260904201333 | 72 | 275 | 0.0 | 3.0 | 0.00 | 0.00 | 0.00 | 59 | 1021.8 |
| 20260904201127 | 72 | 233 | 0.0 | 3.0 | 0.00 | 0.00 | 0.00 | 59 | 1021.9 |
| 20260904200926 | 72 | 222 | 0.0 | 3.0 | 0.00 | 0.00 | 0.00 | 59 | 1021.7 |
| 20260904200722 | 72 | 234 | 0.0 | 3.0 | 0.00 | 0.00 | 0.00 | 59 | 1021.7 |
| 20260904200519 | 72 | 231 | 0.0 | 3.0 | 0.00 | 0.00 | 0.00 | 60 | 1021.6 |
| 20260904200311 | 72 | 230 | 0.0 | 3.0 | 0.00 | 0.00 | 0.00 | 60 | 1021.5 |
| 20260904200108 | 72 | 252 | 0.0 | 5.0 | 0.00 | 0.00 | 0.00 | 60 | 1021.5 |
| 20260904195904 | 72 | 245 | 1.0 | 5.0 | 0.00 | 0.00 | 0.00 | 60 | 1021.5 |
| 20260904195658 | 72 | 236 | 1.0 | 5.0 | 0.00 | 0.00 | 0.00 | 60 | 1021.6 |
| 20260904195457 | 72 | 264 | 2.0 | 5.0 | 0.00 | 0.00 | 0.00 | 60 | 1021.5 |
| 20260904195257 | 72 | 247 | 2.0 | 5.0 | 0.00 | 0.00 | 0.00 | 60 | 1021.6 |
| 20260904195052 | 72 | 220 | 3.0 | 7.0 | 0.00 | 0.00 | 0.00 | 61 | 1021.5 |
| 20260904194847 | 72 | 226 | 3.0 | 7.0 | 0.00 | 0.00 | 0.00 | 60 | 1021.5 |
| 20260904194646 | 72 | 223 | 4.0 | 7.0 | 0.00 | 0.00 | 0.00 | 60 | 1021.4 |
| 20260904194121 | 72 | 228 | 4.0 | 7.0 | 0.00 | 0.00 | 0.00 | 60 | 1021.4 |
| 20260904193919 | 72 | 238 | 3.0 | 7.0 | 0.00 | 0.00 | 0.00 | 60 | 1021.4 |
| 20260904193710 | 72 | 236 | 2.0 | 7.0 | 0.00 | 0.00 | 0.00 | 59 | 1021.3 |
| 20260904193503 | 72 | 236 | 1.0 | 7.0 | 0.00 | 0.00 | 0.00 | 60 | 1021.4 |
| 20260904192617 | 73 | 226 | 1.0 | 5.0 | 0.00 | 0.00 | 0.00 | 59 | 1021.2 |
| 20260904192101 | 73 | 240 | 1.0 | 5.0 | 0.00 | 0.00 | 0.00 | 58 | 1021.2 |
| 20260904191529 | 73 | 236 | 1.0 | 5.0 | 0.00 | 0.00 | 0.00 | 58 | 1021.1 |
| 20260904191326 | 73 | 212 | 1.0 | 6.0 | 0.00 | 0.00 | 0.00 | 58 | 1021.1 |
| 20260904191127 | 73 | 238 | 1.0 | 6.0 | 0.00 | 0.00 | 0.00 | 57 | 1021.0 |
| 20260904190916 | 73 | 238 | 1.0 | 6.0 | 0.00 | 0.00 | 0.00 | 57 | 1021.0 |
| 20260904190350 | 73 | 281 | 3.0 | 11.0 | 0.00 | 0.00 | 0.00 | 58 | 1021.0 |
| 20260904185822 | 75 | 232 | 4.0 | 11.0 | 0.00 | 0.00 | 0.00 | 56 | 1020.8 |
| 20260904185618 | 75 | 223 | 5.0 | 11.0 | 0.00 | 0.00 | 0.00 | 56 | 1020.9 |
| 20260904185407 | 75 | 233 | 5.0 | 11.0 | 0.00 | 0.00 | 0.00 | 54 | 1021.0 |
| 20260904184832 | 74 | 253 | 4.0 | 11.0 | 0.00 | 0.00 | 0.00 | 55 | 1020.9 |
| 20260904184621 | 74 | 220 | 4.0 | 11.0 | 0.00 | 0.00 | 0.00 | 57 | 1020.8 |
| 20260904184413 | 74 | 252 | 4.0 | 9.0 | 0.00 | 0.00 | 0.00 | 58 | 1020.8 |
| 20260904184207 | 74 | 248 | 3.0 | 7.0 | 0.00 | 0.00 | 0.00 | 59 | 1020.7 |
| 20260904184005 | 73 | 236 | 2.0 | 7.0 | 0.00 | 0.00 | 0.00 | 59 | 1020.8 |
| 20260904183756 | 74 | 207 | 2.0 | 7.0 | 0.00 | 0.00 | 0.00 | 59 | 1020.7 |
| 20260904182913 | 74 | 254 | 2.0 | 6.0 | 0.00 | 0.00 | 0.00 | 61 | 1020.6 |
| 20260904182703 | 74 | 232 | 2.0 | 6.0 | 0.00 | 0.00 | 0.00 | 60 | 1020.7 |
| 20260904182459 | 74 | 227 | 2.0 | 6.0 | 0.00 | 0.00 | 0.00 | 60 | 1020.7 |
| 20260904182249 | 74 | 240 | 2.0 | 6.0 | 0.00 | 0.00 | 0.00 | 59 | 1020.6 |
| 20260904182044 | 75 | 253 | 2.0 | 6.0 | 0.00 | 0.00 | 0.00 | 59 | 1020.7 |
| 20260904181840 | 75 | 250 | 2.0 | 6.0 | 0.00 | 0.00 | 0.00 | 58 | 1020.6 |
| 20260904181639 | 75 | 238 | 2.0 | 6.0 | 0.00 | 0.00 | 0.00 | 58 | 1020.6 |
| 20260904181435 | 75 | 222 | 2.0 | 5.0 | 0.00 | 0.00 | 0.00 | 57 | 1020.6 |
| 20260904180900 | 75 | 208 | 1.0 | 7.0 | 0.00 | 0.00 | 0.00 | 57 | 1020.6 |
| 20260904180656 | 75 | 228 | 2.0 | 7.0 | 0.00 | 0.00 | 0.00 | 57 | 1020.6 |
| 20260904180446 | 76 | 206 | 2.0 | 7.0 | 0.00 | 0.00 | 0.00 | 57 | 1020.5 |
| 20260904180241 | 76 | 202 | 3.0 | 7.0 | 0.00 | 0.00 | 0.00 | 57 | 1020.5 |
| 20260904180031 | 76 | 229 | 3.0 | 7.0 | 0.00 | 0.00 | 0.00 | 56 | 1020.4 |
| 20260904175825 | 76 | 248 | 3.0 | 8.0 | 0.00 | 0.00 | 0.00 | 55 | 1020.5 |
| 20260904175620 | 76 | 234 | 3.0 | 8.0 | 0.00 | 0.00 | 0.00 | 55 | 1020.4 |
| 20260904175411 | 77 | 221 | 3.0 | 8.0 | 0.00 | 0.00 | 0.00 | 55 | 1020.3 |
| 20260904174847 | 77 | 232 | 3.0 | 12.0 | 0.00 | 0.00 | 0.00 | 53 | 1020.4 |
| 20260904174644 | 77 | 236 | 3.0 | 12.0 | 0.00 | 0.00 | 0.00 | 54 | 1020.4 |
| 20260904174435 | 78 | 220 | 3.0 | 12.0 | 0.00 | 0.00 | 0.00 | 53 | 1020.4 |
| 20260904174227 | 78 | 236 | 3.0 | 12.0 | 0.00 | 0.00 | 0.00 | 53 | 1020.4 |
| 20260904174023 | 78 | 255 | 3.0 | 12.0 | 0.00 | 0.00 | 0.00 | 52 | 1020.4 |
| 20260904173822 | 78 | 231 | 4.0 | 12.0 | 0.00 | 0.00 | 0.00 | 52 | 1020.4 |
| 20260904173623 | 78 | 224 | 4.0 | 12.0 | 0.00 | 0.00 | 0.00 | 52 | 1020.4 |
| 20260904173419 | 78 | 243 | 4.0 | 12.0 | 0.00 | 0.00 | 0.00 | 52 | 1020.4 |
| 20260904173218 | 78 | 221 | 4.0 | 12.0 | 0.00 | 0.00 | 0.00 | 52 | 1020.4 |
| 20260904173019 | 78 | 244 | 4.0 | 12.0 | 0.00 | 0.00 | 0.00 | 52 | 1020.3 |
| 20260904172817 | 78 | 249 | 3.0 | 9.0 | 0.00 | 0.00 | 0.00 | 53 | 1020.3 |
| 20260904172612 | 78 | 253 | 3.0 | 9.0 | 0.00 | 0.00 | 0.00 | 52 | 1020.3 |
| 20260904172050 | 79 | 255 | 4.0 | 11.0 | 0.00 | 0.00 | 0.00 | 51 | 1020.3 |
| 20260904171844 | 79 | 232 | 4.0 | 11.0 | 0.00 | 0.00 | 0.00 | 51 | 1020.2 |
| 20260904171638 | 79 | 244 | 4.0 | 11.0 | 0.00 | 0.00 | 0.00 | 51 | 1020.2 |
| 20260904171431 | 79 | 211 | 4.0 | 11.0 | 0.00 | 0.00 | 0.00 | 52 | 1020.2 |
| 20260904171224 | 79 | 250 | 4.0 | 11.0 | 0.00 | 0.00 | 0.00 | 51 | 1020.2 |
| 20260904171012 | 79 | 233 | 4.0 | 11.0 | 0.00 | 0.00 | 0.00 | 50 | 1020.1 |
| 20260904170808 | 79 | 231 | 3.0 | 11.0 | 0.00 | 0.00 | 0.00 | 51 | 1020.1 |
| 20260904170558 | 79 | 211 | 3.0 | 11.0 | 0.00 | 0.00 | 0.00 | 50 | 1020.1 |
| 20260904170358 | 79 | 236 | 2.0 | 11.0 | 0.00 | 0.00 | 0.00 | 50 | 1020.0 |
| 20260904170154 | 79 | 248 | 2.0 | 10.0 | 0.00 | 0.00 | 0.00 | 50 | 1020.1 |
| 20260904165635 | 79 | 250 | 3.0 | 10.0 | 0.00 | 0.00 | 0.00 | 50 | 1020.1 |
| 20260904165436 | 79 | 226 | 3.0 | 10.0 | 0.00 | 0.00 | 0.00 | 51 | 1020.1 |
| 20260904165236 | 79 | 318 | 4.0 | 10.0 | 0.00 | 0.00 | 0.00 | 50 | 1020.0 |
| 20260904165036 | 79 | 302 | 4.0 | 9.0 | 0.00 | 0.00 | 0.00 | 50 | 1020.1 |
| 20260904164507 | 79 | 252 | 4.0 | 10.0 | 0.00 | 0.00 | 0.00 | 49 | 1020.0 |
| 20260904164307 | 80 | 220 | 4.0 | 10.0 | 0.00 | 0.00 | 0.00 | 51 | 1019.9 |
| 20260904164100 | 80 | 245 | 3.0 | 10.0 | 0.00 | 0.00 | 0.00 | 51 | 1020.0 |
| 20260904163858 | 80 | 245 | 3.0 | 10.0 | 0.00 | 0.00 | 0.00 | 51 | 1020.0 |
| 20260904163651 | 80 | 249 | 4.0 | 10.0 | 0.00 | 0.00 | 0.00 | 51 | 1020.0 |
| 20260904163129 | 81 | 239 | 4.0 | 10.0 | 0.00 | 0.00 | 0.00 | 49 | 1020.0 |
| 20260904162239 | 81 | 242 | 3.0 | 8.0 | 0.00 | 0.00 | 0.00 | 49 | 1020.0 |
| 20260904162040 | 81 | 215 | 3.0 | 8.0 | 0.00 | 0.00 | 0.00 | 49 | 1020.0 |
| 20260904161835 | 81 | 233 | 3.0 | 8.0 | 0.00 | 0.00 | 0.00 | 48 | 1020.0 |
| 20260904161627 | 80 | 212 | 4.0 | 10.0 | 0.00 | 0.00 | 0.00 | 48 | 1020.1 |
| 20260904161427 | 80 | 226 | 4.0 | 10.0 | 0.00 | 0.00 | 0.00 | 49 | 1020.0 |
| 20260904161224 | 80 | 264 | 4.0 | 10.0 | 0.00 | 0.00 | 0.00 | 48 | 1020.0 |
| 20260904161021 | 80 | 247 | 4.0 | 10.0 | 0.00 | 0.00 | 0.00 | 49 | 1020.1 |
| 20260904160819 | 80 | 217 | 4.0 | 10.0 | 0.00 | 0.00 | 0.00 | 49 | 1020.0 |
| 20260904160609 | 80 | 232 | 3.0 | 12.0 | 0.00 | 0.00 | 0.00 | 50 | 1020.0 |
| 20260904160409 | 80 | 250 | 3.0 | 12.0 | 0.00 | 0.00 | 0.00 | 50 | 1019.9 |
| 20260904160202 | 80 | 242 | 3.0 | 12.0 | 0.00 | 0.00 | 0.00 | 51 | 1020.0 |
| 20260904155955 | 80 | 237 | 3.0 | 12.0 | 0.00 | 0.00 | 0.00 | 50 | 1020.0 |
| 20260904155750 | 80 | 227 | 4.0 | 12.0 | 0.00 | 0.00 | 0.00 | 51 | 1020.0 |
| 20260904155540 | 81 | 230 | 4.0 | 12.0 | 0.00 | 0.00 | 0.00 | 49 | 1020.0 |
| 20260904155338 | 80 | 238 | 4.0 | 12.0 | 0.00 | 0.00 | 0.00 | 47 | 1019.9 |
| 20260904155137 | 81 | 229 | 4.0 | 12.0 | 0.00 | 0.00 | 0.00 | 48 | 1020.0 |
| 20260904154939 | 81 | 237 | 4.0 | 12.0 | 0.00 | 0.00 | 0.00 | 47 | 1019.9 |
| 20260904154730 | 81 | 216 | 3.0 | 11.0 | 0.00 | 0.00 | 0.00 | 47 | 1019.9 |
| 20260904154157 | 81 | 254 | 4.0 | 11.0 | 0.00 | 0.00 | 0.00 | 47 | 1020.0 |
| 20260904153955 | 81 | 257 | 4.0 | 11.0 | 0.00 | 0.00 | 0.00 | 46 | 1020.0 |
| 20260904153429 | 81 | 249 | 5.0 | 12.0 | 0.00 | 0.00 | 0.00 | 49 | 1020.0 |
| 20260904153223 | 81 | 223 | 5.0 | 12.0 | 0.00 | 0.00 | 0.00 | 46 | 1020.0 |
| 20260904153021 | 81 | 239 | 4.0 | 12.0 | 0.00 | 0.00 | 0.00 | 47 | 1020.1 |
| 20260904152812 | 81 | 221 | 4.0 | 12.0 | 0.00 | 0.00 | 0.00 | 47 | 1020.1 |
| 20260904152611 | 81 | 229 | 4.0 | 12.0 | 0.00 | 0.00 | 0.00 | 47 | 1020.2 |
| 20260904152403 | 81 | 236 | 5.0 | 12.0 | 0.00 | 0.00 | 0.00 | 47 | 1020.1 |
| 20260904152158 | 81 | 279 | 5.0 | 12.0 | 0.00 | 0.00 | 0.00 | 47 | 1020.0 |
| 20260904151952 | 81 | 238 | 5.0 | 12.0 | 0.00 | 0.00 | 0.00 | 47 | 1020.1 |
| 20260904151750 | 81 | 250 | 4.0 | 11.0 | 0.00 | 0.00 | 0.00 | 47 | 1020.1 |
| 20260904151543 | 81 | 238 | 4.0 | 11.0 | 0.00 | 0.00 | 0.00 | 46 | 1020.2 |
| 20260904151014 | 81 | 269 | 4.0 | 9.0 | 0.00 | 0.00 | 0.00 | 48 | 1020.2 |
| 20260904150815 | 81 | 224 | 3.0 | 9.0 | 0.00 | 0.00 | 0.00 | 47 | 1020.2 |
| 20260904150611 | 81 | 228 | 3.0 | 9.0 | 0.00 | 0.00 | 0.00 | 48 | 1020.2 |
| 20260904150410 | 81 | 254 | 4.0 | 9.0 | 0.00 | 0.00 | 0.00 | 47 | 1020.2 |
| 20260904150200 | 81 | 233 | 3.0 | 10.0 | 0.00 | 0.00 | 0.00 | 48 | 1020.2 |
| 20260904145950 | 81 | 230 | 4.0 | 10.0 | 0.00 | 0.00 | 0.00 | 49 | 1020.2 |
| 20260904145748 | 81 | 257 | 4.0 | 10.0 | 0.00 | 0.00 | 0.00 | 50 | 1020.2 |
| 20260904145547 | 81 | 236 | 4.0 | 10.0 | 0.00 | 0.00 | 0.00 | 49 | 1020.3 |
| 20260904145341 | 81 | 238 | 4.0 | 10.0 | 0.00 | 0.00 | 0.00 | 47 | 1020.3 |
| 20260904145138 | 81 | 259 | 5.0 | 10.0 | 0.00 | 0.00 | 0.00 | 47 | 1020.3 |
| 20260904144938 | 81 | 258 | 5.0 | 10.0 | 0.00 | 0.00 | 0.00 | 49 | 1020.3 |
| 20260904144411 | 81 | 248 | 5.0 | 10.0 | 0.00 | 0.00 | 0.00 | 49 | 1020.4 |
| 20260904144207 | 81 | 243 | 5.0 | 10.0 | 0.00 | 0.00 | 0.00 | 49 | 1020.3 |
| 20260904144005 | 81 | 215 | 5.0 | 10.0 | 0.00 | 0.00 | 0.00 | 49 | 1020.4 |
| 20260904143432 | 81 | 233 | 4.0 | 10.0 | 0.00 | 0.00 | 0.00 | 48 | 1020.4 |
| 20260904143225 | 81 | 233 | 4.0 | 10.0 | 0.00 | 0.00 | 0.00 | 51 | 1020.4 |
| 20260904143024 | 81 | 252 | 4.0 | 10.0 | 0.00 | 0.00 | 0.00 | 49 | 1020.4 |
| 20260904142814 | 81 | 239 | 3.0 | 10.0 | 0.00 | 0.00 | 0.00 | 49 | 1020.4 |
| 20260904142248 | 81 | 240 | 4.0 | 8.0 | 0.00 | 0.00 | 0.00 | 49 | 1020.5 |
| 20260904141725 | 81 | 229 | 3.0 | 7.0 | 0.00 | 0.00 | 0.00 | 49 | 1020.6 |
| 20260904141158 | 81 | 267 | 3.0 | 7.0 | 0.00 | 0.00 | 0.00 | 48 | 1020.7 |
| 20260904140637 | 81 | 261 | 2.0 | 10.0 | 0.00 | 0.00 | 0.00 | 50 | 1020.6 |
| 20260904140436 | 81 | 232 | 3.0 | 10.0 | 0.00 | 0.00 | 0.00 | 50 | 1020.8 |
| 20260904140227 | 81 | 257 | 3.0 | 10.0 | 0.00 | 0.00 | 0.00 | 49 | 1020.8 |
| 20260904135709 | 80 | 233 | 4.0 | 10.0 | 0.00 | 0.00 | 0.00 | 50 | 1020.8 |
| 20260904135500 | 81 | 218 | 4.0 | 10.0 | 0.00 | 0.00 | 0.00 | 48 | 1020.9 |
| 20260904135258 | 80 | 238 | 3.0 | 10.0 | 0.00 | 0.00 | 0.00 | 48 | 1020.9 |
| 20260904135052 | 80 | 267 | 4.0 | 10.0 | 0.00 | 0.00 | 0.00 | 50 | 1020.9 |
| 20260904134846 | 81 | 222 | 4.0 | 10.0 | 0.00 | 0.00 | 0.00 | 48 | 1021.0 |
| 20260904134645 | 81 | 277 | 4.0 | 9.0 | 0.00 | 0.00 | 0.00 | 49 | 1020.9 |
| 20260904134440 | 80 | 237 | 5.0 | 9.0 | 0.00 | 0.00 | 0.00 | 51 | 1020.9 |
| 20260904134237 | 80 | 254 | 5.0 | 9.0 | 0.00 | 0.00 | 0.00 | 48 | 1020.9 |
| 20260904134028 | 80 | 236 | 5.0 | 9.0 | 0.00 | 0.00 | 0.00 | 49 | 1020.9 |
| 20260904133821 | 81 | 230 | 5.0 | 9.0 | 0.00 | 0.00 | 0.00 | 48 | 1021.0 |
| 20260904133620 | 81 | 224 | 5.0 | 9.0 | 0.00 | 0.00 | 0.00 | 50 | 1021.0 |
| 20260904133414 | 81 | 190 | 4.0 | 9.0 | 0.00 | 0.00 | 0.00 | 49 | 1020.9 |
| 20260904133205 | 81 | 257 | 3.0 | 9.0 | 0.00 | 0.00 | 0.00 | 47 | 1021.0 |
| 20260904132955 | 81 | 211 | 3.0 | 9.0 | 0.00 | 0.00 | 0.00 | 47 | 1021.1 |
| 20260904132436 | 81 | 239 | 2.0 | 8.0 | 0.00 | 0.00 | 0.00 | 49 | 1021.1 |
| 20260904131917 | 81 | 252 | 1.0 | 8.0 | 0.00 | 0.00 | 0.00 | 52 | 1021.1 |
| 20260904131710 | 81 | 252 | 1.0 | 9.0 | 0.00 | 0.00 | 0.00 | 50 | 1021.2 |
| 20260904131153 | 81 | 231 | 1.0 | 9.0 | 0.00 | 0.00 | 0.00 | 49 | 1021.2 |
| 20260904130952 | 81 | 230 | 2.0 | 9.0 | 0.00 | 0.00 | 0.00 | 54 | 1021.2 |
| 20260904130744 | 81 | 238 | 3.0 | 9.0 | 0.00 | 0.00 | 0.00 | 52 | 1021.1 |
| 20260904130533 | 81 | 224 | 2.0 | 9.0 | 0.00 | 0.00 | 0.00 | 52 | 1021.2 |
| 20260904130333 | 80 | 242 | 2.0 | 9.0 | 0.00 | 0.00 | 0.00 | 51 | 1021.2 |
| 20260904125812 | 81 | 243 | 2.0 | 8.0 | 0.00 | 0.00 | 0.00 | 51 | 1021.2 |
| 20260904125606 | 81 | 235 | 2.0 | 7.0 | 0.00 | 0.00 | 0.00 | 53 | 1021.3 |
| 20260904125407 | 81 | 253 | 2.0 | 7.0 | 0.00 | 0.00 | 0.00 | 49 | 1021.3 |
| 20260904125202 | 81 | 220 | 1.0 | 6.0 | 0.00 | 0.00 | 0.00 | 50 | 1021.2 |
| 20260904124956 | 81 | 240 | 1.0 | 6.0 | 0.00 | 0.00 | 0.00 | 51 | 1021.3 |
| 20260904124745 | 81 | 232 | 1.0 | 6.0 | 0.00 | 0.00 | 0.00 | 55 | 1021.4 |
| 20260904124535 | 81 | 238 | 2.0 | 6.0 | 0.00 | 0.00 | 0.00 | 52 | 1021.3 |
| 20260904124336 | 80 | 248 | 2.0 | 6.0 | 0.00 | 0.00 | 0.00 | 52 | 1021.3 |
| 20260904124130 | 80 | 243 | 2.0 | 6.0 | 0.00 | 0.00 | 0.00 | 51 | 1021.4 |
| 20260904123929 | 80 | 256 | 2.0 | 5.0 | 0.00 | 0.00 | 0.00 | 50 | 1021.4 |
| 20260904123728 | 80 | 195 | 1.0 | 5.0 | 0.00 | 0.00 | 0.00 | 51 | 1021.5 |
| 20260904123525 | 80 | 239 | 1.0 | 5.0 | 0.00 | 0.00 | 0.00 | 50 | 1021.4 |
| 20260904123316 | 81 | 290 | 1.0 | 5.0 | 0.00 | 0.00 | 0.00 | 52 | 1021.5 |
| 20260904123116 | 81 | 244 | 1.0 | 5.0 | 0.00 | 0.00 | 0.00 | 52 | 1021.5 |
| 20260904122908 | 80 | 229 | 1.0 | 5.0 | 0.00 | 0.00 | 0.00 | 52 | 1021.5 |
| 20260904122706 | 80 | 243 | 1.0 | 7.0 | 0.00 | 0.00 | 0.00 | 53 | 1021.6 |
| 20260904122140 | 80 | 235 | 1.0 | 7.0 | 0.00 | 0.00 | 0.00 | 52 | 1021.5 |
| 20260904121934 | 80 | 264 | 1.0 | 7.0 | 0.00 | 0.00 | 0.00 | 51 | 1021.5 |
| 20260904121727 | 80 | 243 | 2.0 | 7.0 | 0.00 | 0.00 | 0.00 | 52 | 1021.5 |
| 20260904121527 | 80 | 264 | 2.0 | 7.0 | 0.00 | 0.00 | 0.00 | 53 | 1021.5 |
| 20260904120641 | 80 | 227 | 2.0 | 7.0 | 0.00 | 0.00 | 0.00 | 54 | 1021.6 |
| 20260904120440 | 80 | 238 | 1.0 | 7.0 | 0.00 | 0.00 | 0.00 | 54 | 1021.6 |
| 20260904120233 | 80 | 245 | 1.0 | 7.0 | 0.00 | 0.00 | 0.00 | 54 | 1021.6 |
| 20260904120033 | 80 | 245 | 1.0 | 7.0 | 0.00 | 0.00 | 0.00 | 49 | 1021.6 |
| 20260904115827 | 80 | 261 | 1.0 | 7.0 | 0.00 | 0.00 | 0.00 | 54 | 1021.6 |
| 20260904115622 | 79 | 257 | 1.0 | 7.0 | 0.00 | 0.00 | 0.00 | 50 | 1021.7 |
| 20260904115420 | 79 | 200 | 2.0 | 7.0 | 0.00 | 0.00 | 0.00 | 53 | 1021.7 |
| 20260904115209 | 79 | 250 | 2.0 | 7.0 | 0.00 | 0.00 | 0.00 | 50 | 1021.7 |
| 20260904114324 | 79 | 243 | 1.0 | 5.0 | 0.00 | 0.00 | 0.00 | 52 | 1021.7 |
| 20260904114119 | 79 | 238 | 0.0 | 4.0 | 0.00 | 0.00 | 0.00 | 51 | 1021.7 |
| 20260904113917 | 79 | 283 | 1.0 | 5.0 | 0.00 | 0.00 | 0.00 | 54 | 1021.8 |
| 20260904113706 | 79 | 278 | 1.0 | 5.0 | 0.00 | 0.00 | 0.00 | 52 | 1021.7 |
| 20260904113457 | 78 | 252 | 1.0 | 5.0 | 0.00 | 0.00 | 0.00 | 55 | 1021.7 |
| 20260904113258 | 78 | 267 | 1.0 | 5.0 | 0.00 | 0.00 | 0.00 | 51 | 1021.7 |
| 20260904113055 | 78 | 246 | 1.0 | 5.0 | 0.00 | 0.00 | 0.00 | 50 | 1021.7 |
| 20260904112844 | 78 | 250 | 1.0 | 9.0 | 0.00 | 0.00 | 0.00 | 53 | 1021.7 |
| 20260904112641 | 78 | 272 | 1.0 | 9.0 | 0.00 | 0.00 | 0.00 | 52 | 1021.7 |
| 20260904112440 | 78 | 245 | 1.0 | 9.0 | 0.00 | 0.00 | 0.00 | 53 | 1021.7 |
| 20260904112238 | 78 | 243 | 2.0 | 9.0 | 0.00 | 0.00 | 0.00 | 53 | 1021.7 |
| 20260904112038 | 78 | 250 | 3.0 | 9.0 | 0.00 | 0.00 | 0.00 | 50 | 1021.8 |
| 20260904111829 | 78 | 240 | 3.0 | 9.0 | 0.00 | 0.00 | 0.00 | 52 | 1021.7 |
| 20260904111621 | 77 | 250 | 3.0 | 9.0 | 0.00 | 0.00 | 0.00 | 51 | 1021.7 |
| 20260904111059 | 77 | 240 | 3.0 | 9.0 | 0.00 | 0.00 | 0.00 | 48 | 1021.8 |
| 20260904110852 | 77 | 231 | 3.0 | 8.0 | 0.00 | 0.00 | 0.00 | 50 | 1021.8 |
| 20260904110643 | 77 | 225 | 2.0 | 8.0 | 0.00 | 0.00 | 0.00 | 50 | 1021.8 |
| 20260904110434 | 77 | 262 | 2.0 | 8.0 | 0.00 | 0.00 | 0.00 | 47 | 1021.8 |
| 20260904110228 | 78 | 233 | 2.0 | 6.0 | 0.00 | 0.00 | 0.00 | 48 | 1021.9 |
| 20260904110027 | 78 | 243 | 1.0 | 7.0 | 0.00 | 0.00 | 0.00 | 48 | 1021.9 |
| 20260904105817 | 78 | 266 | 1.0 | 7.0 | 0.00 | 0.00 | 0.00 | 54 | 1021.9 |
| 20260904105618 | 77 | 288 | 1.0 | 7.0 | 0.00 | 0.00 | 0.00 | 51 | 1021.9 |
| 20260904105412 | 77 | 238 | 1.0 | 7.0 | 0.00 | 0.00 | 0.00 | 51 | 1022.0 |
| 20260904105202 | 77 | 231 | 2.0 | 7.0 | 0.00 | 0.00 | 0.00 | 53 | 1022.0 |
| 20260904104641 | 76 | 250 | 3.0 | 7.0 | 0.00 | 0.00 | 0.00 | 54 | 1021.9 |
| 20260904104125 | 76 | 231 | 3.0 | 6.0 | 0.00 | 0.00 | 0.00 | 55 | 1021.9 |
| 20260904103915 | 76 | 237 | 2.0 | 6.0 | 0.00 | 0.00 | 0.00 | 52 | 1021.9 |
| 20260904103709 | 76 | 236 | 2.0 | 6.0 | 0.00 | 0.00 | 0.00 | 53 | 1022.0 |
| 20260904103506 | 76 | 236 | 2.0 | 6.0 | 0.00 | 0.00 | 0.00 | 54 | 1022.0 |
| 20260904103306 | 76 | 244 | 2.0 | 6.0 | 0.00 | 0.00 | 0.00 | 56 | 1022.1 |
| 20260904103103 | 75 | 210 | 2.0 | 6.0 | 0.00 | 0.00 | 0.00 | 52 | 1022.1 |
| 20260904102856 | 75 | 228 | 2.0 | 6.0 | 0.00 | 0.00 | 0.00 | 55 | 1022.1 |
| 20260904102649 | 75 | 240 | 2.0 | 6.0 | 0.00 | 0.00 | 0.00 | 52 | 1022.2 |
| 20260904102117 | 75 | 250 | 2.0 | 7.0 | 0.00 | 0.00 | 0.00 | 54 | 1022.3 |
| 20260904101557 | 75 | 229 | 2.0 | 7.0 | 0.00 | 0.00 | 0.00 | 56 | 1022.4 |
| 20260904101031 | 75 | 252 | 2.0 | 7.0 | 0.00 | 0.00 | 0.00 | 55 | 1022.5 |
| 20260904100824 | 74 | 237 | 2.0 | 7.0 | 0.00 | 0.00 | 0.00 | 57 | 1022.4 |
| 20260904100625 | 74 | 228 | 2.0 | 7.0 | 0.00 | 0.00 | 0.00 | 58 | 1022.5 |
| 20260904100419 | 74 | 239 | 2.0 | 7.0 | 0.00 | 0.00 | 0.00 | 54 | 1022.6 |
| 20260904100215 | 74 | 239 | 2.0 | 6.0 | 0.00 | 0.00 | 0.00 | 58 | 1022.5 |
| 20260904100007 | 74 | 228 | 2.0 | 9.0 | 0.00 | 0.00 | 0.00 | 55 | 1022.6 |
| 20260904095804 | 74 | 236 | 1.0 | 9.0 | 0.00 | 0.00 | 0.00 | 56 | 1022.7 |
| 20260904095605 | 74 | 259 | 2.0 | 9.0 | 0.00 | 0.00 | 0.00 | 57 | 1022.6 |
| 20260904095404 | 74 | 240 | 2.0 | 9.0 | 0.00 | 0.00 | 0.00 | 58 | 1022.7 |
| 20260904095156 | 73 | 245 | 2.0 | 9.0 | 0.00 | 0.00 | 0.00 | 59 | 1022.8 |
| 20260904094950 | 73 | 255 | 3.0 | 9.0 | 0.00 | 0.00 | 0.00 | 57 | 1022.8 |
| 20260904094746 | 73 | 231 | 3.0 | 9.0 | 0.00 | 0.00 | 0.00 | 57 | 1022.8 |
| 20260904094538 | 73 | 269 | 3.0 | 9.0 | 0.00 | 0.00 | 0.00 | 59 | 1022.9 |
| 20260904094336 | 73 | 253 | 3.0 | 9.0 | 0.00 | 0.00 | 0.00 | 57 | 1022.8 |
| 20260904094131 | 73 | 252 | 2.0 | 9.0 | 0.00 | 0.00 | 0.00 | 58 | 1022.8 |
| 20260904093920 | 73 | 245 | 2.0 | 9.0 | 0.00 | 0.00 | 0.00 | 57 | 1022.8 |
| 20260904093401 | 73 | 208 | 3.0 | 9.0 | 0.00 | 0.00 | 0.00 | 58 | 1022.8 |
| 20260904092835 | 72 | 256 | 3.0 | 9.0 | 0.00 | 0.00 | 0.00 | 56 | 1022.9 |
| 20260904092307 | 72 | 246 | 2.0 | 7.0 | 0.00 | 0.00 | 0.00 | 59 | 1023.0 |
| 20260904092105 | 72 | 247 | 3.0 | 7.0 | 0.00 | 0.00 | 0.00 | 59 | 1023.0 |
| 20260904091857 | 72 | 240 | 3.0 | 7.0 | 0.00 | 0.00 | 0.00 | 61 | 1023.0 |
| 20260904091338 | 72 | 226 | 3.0 | 8.0 | 0.00 | 0.00 | 0.00 | 61 | 1022.9 |
| 20260904091132 | 72 | 232 | 3.0 | 8.0 | 0.00 | 0.00 | 0.00 | 59 | 1022.9 |
| 20260904090929 | 72 | 240 | 2.0 | 8.0 | 0.00 | 0.00 | 0.00 | 60 | 1022.9 |
| 20260904090723 | 72 | 237 | 2.0 | 8.0 | 0.00 | 0.00 | 0.00 | 62 | 1022.8 |
| 20260904090523 | 72 | 231 | 3.0 | 8.0 | 0.00 | 0.00 | 0.00 | 62 | 1022.8 |
| 20260904090323 | 71 | 263 | 3.0 | 8.0 | 0.00 | 0.00 | 0.00 | 61 | 1022.8 |
| 20260904090116 | 71 | 250 | 2.0 | 8.0 | 0.00 | 0.00 | 0.00 | 61 | 1022.8 |
| 20260904085557 | 71 | 259 | 2.0 | 7.0 | 0.00 | 0.00 | 0.00 | 63 | 1022.8 |
| 20260904085356 | 71 | 232 | 2.0 | 8.0 | 0.00 | 0.00 | 0.00 | 62 | 1022.8 |
| 20260904084827 | 71 | 172 | 2.0 | 8.0 | 0.00 | 0.00 | 0.00 | 62 | 1022.8 |
| 20260904084614 | 71 | 227 | 2.0 | 8.0 | 0.00 | 0.00 | 0.00 | 60 | 1022.8 |
| 20260904084416 | 70 | 221 | 3.0 | 8.0 | 0.00 | 0.00 | 0.00 | 59 | 1022.8 |
| 20260904084211 | 70 | 226 | 3.0 | 8.0 | 0.00 | 0.00 | 0.00 | 59 | 1022.8 |
| 20260904084005 | 70 | 248 | 3.0 | 8.0 | 0.00 | 0.00 | 0.00 | 59 | 1022.8 |
| 20260904083756 | 70 | 231 | 2.0 | 8.0 | 0.00 | 0.00 | 0.00 | 58 | 1022.9 |
| 20260904083558 | 70 | 215 | 2.0 | 8.0 | 0.00 | 0.00 | 0.00 | 59 | 1022.9 |
| 20260904083356 | 70 | 212 | 2.0 | 5.0 | 0.00 | 0.00 | 0.00 | 59 | 1022.8 |
| 20260904083156 | 70 | 223 | 2.0 | 5.0 | 0.00 | 0.00 | 0.00 | 58 | 1022.8 |
| 20260904082955 | 70 | 254 | 2.0 | 5.0 | 0.00 | 0.00 | 0.00 | 64 | 1022.8 |
| 20260904082753 | 70 | 225 | 2.0 | 5.0 | 0.00 | 0.00 | 0.00 | 61 | 1022.8 |
| 20260904082549 | 70 | 240 | 2.0 | 5.0 | 0.00 | 0.00 | 0.00 | 61 | 1022.8 |
| 20260904082349 | 70 | 246 | 2.0 | 5.0 | 0.00 | 0.00 | 0.00 | 61 | 1022.8 |
| 20260904082144 | 70 | 269 | 2.0 | 6.0 | 0.00 | 0.00 | 0.00 | 61 | 1022.8 |
| 20260904081935 | 70 | 262 | 2.0 | 6.0 | 0.00 | 0.00 | 0.00 | 61 | 1022.8 |
| 20260904081726 | 70 | 259 | 2.0 | 6.0 | 0.00 | 0.00 | 0.00 | 60 | 1022.8 |
| 20260904081518 | 70 | 238 | 2.0 | 6.0 | 0.00 | 0.00 | 0.00 | 64 | 1022.9 |
| 20260904081316 | 70 | 248 | 2.0 | 6.0 | 0.00 | 0.00 | 0.00 | 61 | 1022.8 |
| 20260904081110 | 70 | 217 | 2.0 | 6.0 | 0.00 | 0.00 | 0.00 | 60 | 1022.8 |
| 20260904080909 | 70 | 245 | 1.0 | 6.0 | 0.00 | 0.00 | 0.00 | 61 | 1022.7 |
| 20260904080705 | 70 | 259 | 1.0 | 6.0 | 0.00 | 0.00 | 0.00 | 62 | 1022.8 |
| 20260904080145 | 70 | 281 | 1.0 | 4.0 | 0.00 | 0.00 | 0.00 | 60 | 1022.7 |
| 20260904075936 | 70 | 214 | 1.0 | 4.0 | 0.00 | 0.00 | 0.00 | 60 | 1022.7 |
| 20260904075736 | 70 | 242 | 1.0 | 4.0 | 0.00 | 0.00 | 0.00 | 60 | 1022.8 |
| 20260904075529 | 70 | 238 | 1.0 | 4.0 | 0.00 | 0.00 | 0.00 | 59 | 1022.8 |
| 20260904075322 | 70 | 240 | 0.0 | 4.0 | 0.00 | 0.00 | 0.00 | 61 | 1022.7 |
| 20260904075113 | 70 | 231 | 1.0 | 4.0 | 0.00 | 0.00 | 0.00 | 61 | 1022.7 |
| 20260904074913 | 70 | 241 | 0.0 | 4.0 | 0.00 | 0.00 | 0.00 | 60 | 1022.8 |
| 20260904074707 | 70 | 207 | 0.0 | 4.0 | 0.00 | 0.00 | 0.00 | 63 | 1022.7 |
| 20260904074502 | 69 | 242 | 0.0 | 4.0 | 0.00 | 0.00 | 0.00 | 62 | 1022.7 |
| 20260904074253 | 69 | 229 | 0.0 | 3.0 | 0.00 | 0.00 | 0.00 | 61 | 1022.7 |
| 20260904074045 | 69 | 20 | 0.0 | 0.0 | 0.00 | 0.00 | 0.00 | 66 | 1022.7 |
| 20260904073846 | 69 | 20 | 0.0 | 0.0 | 0.00 | 0.00 | 0.00 | 66 | 1022.8 |
| 20260904073639 | 69 | 20 | 0.0 | 0.0 | 0.00 | 0.00 | 0.00 | 65 | 1022.7 |
| 20260904072754 | 69 | 276 | 0.0 | 6.0 | 0.00 | 0.00 | 0.00 | 67 | 1022.6 |
| 20260904072547 | 69 | 276 | 0.0 | 6.0 | 0.00 | 0.00 | 0.00 | 67 | 1022.7 |
| 20260904072345 | 68 | 238 | 1.0 | 6.0 | 0.00 | 0.00 | 0.00 | 64 | 1022.6 |
| 20260904072140 | 68 | 237 | 1.0 | 6.0 | 0.00 | 0.00 | 0.00 | 61 | 1022.8 |
| 20260904071936 | 68 | 237 | 1.0 | 6.0 | 0.00 | 0.00 | 0.00 | 62 | 1022.7 |
| 20260904071726 | 69 | 233 | 1.0 | 6.0 | 0.00 | 0.00 | 0.00 | 61 | 1022.6 |
| 20260904071527 | 69 | 248 | 1.0 | 6.0 | 0.00 | 0.00 | 0.00 | 60 | 1022.6 |
| 20260904071324 | 69 | 263 | 1.0 | 6.0 | 0.00 | 0.00 | 0.00 | 60 | 1022.6 |
| 20260904071124 | 68 | 238 | 1.0 | 6.0 | 0.00 | 0.00 | 0.00 | 59 | 1022.6 |
| 20260904070923 | 68 | 258 | 1.0 | 6.0 | 0.00 | 0.00 | 0.00 | 58 | 1022.6 |
| 20260904070716 | 68 | 245 | 1.0 | 4.0 | 0.00 | 0.00 | 0.00 | 60 | 1022.6 |
| 20260904070509 | 68 | 240 | 1.0 | 4.0 | 0.00 | 0.00 | 0.00 | 61 | 1022.6 |
| 20260904070304 | 68 | 217 | 0.0 | 4.0 | 0.00 | 0.00 | 0.00 | 59 | 1022.8 |
| 20260904070058 | 68 | 253 | 0.0 | 3.0 | 0.00 | 0.00 | 0.00 | 60 | 1022.7 |
| 20260904065849 | 68 | 244 | 0.0 | 3.0 | 0.00 | 0.00 | 0.00 | 60 | 1022.8 |
| 20260904065642 | 68 | 235 | 0.0 | 3.0 | 0.00 | 0.00 | 0.00 | 61 | 1022.8 |
| 20260904065432 | 67 | 234 | 0.0 | 3.0 | 0.00 | 0.00 | 0.00 | 61 | 1022.7 |
| 20260904065226 | 67 | 233 | 0.0 | 3.0 | 0.00 | 0.00 | 0.00 | 61 | 1022.7 |
| 20260904065018 | 68 | 243 | 1.0 | 3.0 | 0.00 | 0.00 | 0.00 | 61 | 1022.8 |
| 20260904064816 | 68 | 250 | 1.0 | 3.0 | 0.00 | 0.00 | 0.00 | 59 | 1022.7 |
| 20260904064245 | 67 | 237 | 1.0 | 3.0 | 0.00 | 0.00 | 0.00 | 58 | 1022.6 |
| 20260904064044 | 67 | 234 | 0.0 | 2.0 | 0.00 | 0.00 | 0.00 | 59 | 1022.7 |
| 20260904063841 | 67 | 253 | 0.0 | 3.0 | 0.00 | 0.00 | 0.00 | 60 | 1022.8 |
| 20260904063634 | 67 | 245 | 0.0 | 3.0 | 0.00 | 0.00 | 0.00 | 61 | 1022.8 |
| 20260904063110 | 66 | 251 | 0.0 | 3.0 | 0.00 | 0.00 | 0.00 | 61 | 1022.9 |
| 20260904062901 | 66 | 252 | 0.0 | 5.0 | 0.00 | 0.00 | 0.00 | 62 | 1023.0 |
| 20260904062652 | 67 | 252 | 1.0 | 5.0 | 0.00 | 0.00 | 0.00 | 61 | 1022.9 |
| 20260904062448 | 67 | 240 | 1.0 | 5.0 | 0.00 | 0.00 | 0.00 | 61 | 1022.9 |
| 20260904062241 | 67 | 252 | 1.0 | 5.0 | 0.00 | 0.00 | 0.00 | 60 | 1022.9 |
| 20260904062042 | 67 | 240 | 1.0 | 5.0 | 0.00 | 0.00 | 0.00 | 58 | 1022.9 |
| 20260904061832 | 67 | 238 | 1.0 | 6.0 | 0.00 | 0.00 | 0.00 | 58 | 1022.9 |
| 20260904061626 | 67 | 230 | 1.0 | 6.0 | 0.00 | 0.00 | 0.00 | 57 | 1022.8 |
| 20260904061425 | 67 | 223 | 1.0 | 6.0 | 0.00 | 0.00 | 0.00 | 57 | 1022.8 |
| 20260904061215 | 67 | 240 | 1.0 | 6.0 | 0.00 | 0.00 | 0.00 | 57 | 1022.9 |
| 20260904061010 | 67 | 224 | 1.0 | 8.0 | 0.00 | 0.00 | 0.00 | 57 | 1022.9 |
| 20260904060804 | 67 | 219 | 1.0 | 8.0 | 0.00 | 0.00 | 0.00 | 57 | 1022.9 |
| 20260904060604 | 67 | 233 | 1.0 | 8.0 | 0.00 | 0.00 | 0.00 | 57 | 1023.0 |
| 20260904060401 | 67 | 222 | 2.0 | 8.0 | 0.00 | 0.00 | 0.00 | 57 | 1023.0 |
| 20260904060202 | 67 | 217 | 2.0 | 8.0 | 0.00 | 0.00 | 0.00 | 57 | 1023.0 |
| 20260904060003 | 67 | 212 | 2.0 | 8.0 | 0.00 | 0.00 | 0.00 | 57 | 1023.0 |
| 20260904055754 | 67 | 225 | 2.0 | 8.0 | 0.00 | 0.00 | 0.00 | 57 | 1023.0 |
| 20260904055548 | 67 | 232 | 2.0 | 8.0 | 0.00 | 0.00 | 0.00 | 57 | 1023.0 |
| 20260904055349 | 67 | 243 | 2.0 | 8.0 | 0.00 | 0.00 | 0.00 | 57 | 1023.0 |
| 20260904055141 | 67 | 221 | 2.0 | 8.0 | 0.00 | 0.00 | 0.00 | 56 | 1023.0 |
| 20260904054936 | 67 | 234 | 2.0 | 6.0 | 0.00 | 0.00 | 0.00 | 57 | 1023.0 |
| 20260904054737 | 67 | 168 | 1.0 | 5.0 | 0.00 | 0.00 | 0.00 | 57 | 1023.0 |
| 20260904054206 | 66 | 278 | 1.0 | 6.0 | 0.00 | 0.00 | 0.00 | 58 | 1023.0 |
| 20260904054000 | 66 | 255 | 1.0 | 6.0 | 0.00 | 0.00 | 0.00 | 58 | 1023.0 |
| 20260904053801 | 66 | 255 | 1.0 | 6.0 | 0.00 | 0.00 | 0.00 | 58 | 1023.0 |
| 20260904053558 | 66 | 219 | 1.0 | 6.0 | 0.00 | 0.00 | 0.00 | 59 | 1023.0 |
| 20260904053349 | 65 | 226 | 1.0 | 6.0 | 0.00 | 0.00 | 0.00 | 60 | 1023.2 |
| 20260904053148 | 65 | 236 | 1.0 | 6.0 | 0.00 | 0.00 | 0.00 | 60 | 1023.1 |
| 20260904052942 | 65 | 222 | 0.0 | 6.0 | 0.00 | 0.00 | 0.00 | 61 | 1023.2 |
| 20260904052732 | 64 | 219 | 0.0 | 6.0 | 0.00 | 0.00 | 0.00 | 62 | 1023.2 |
| 20260904052204 | 63 | 247 | 0.0 | 4.0 | 0.00 | 0.00 | 0.00 | 64 | 1023.2 |
| 20260904052005 | 62 | 214 | 0.0 | 4.0 | 0.00 | 0.00 | 0.00 | 66 | 1023.2 |
| 20260904051431 | 62 | 229 | 0.0 | 4.0 | 0.00 | 0.00 | 0.00 | 66 | 1023.1 |
| 20260904050901 | 62 | 105 | 0.0 | 0.0 | 0.00 | 0.00 | 0.00 | 66 | 1023.1 |
| 20260904050648 | 62 | 102 | 0.0 | 3.0 | 0.00 | 0.00 | 0.00 | 66 | 1023.2 |
| 20260904050123 | 61 | 93 | 0.0 | 3.0 | 0.00 | 0.00 | 0.00 | 67 | 1023.2 |
| 20260904045918 | 61 | 231 | 0.0 | 3.0 | 0.00 | 0.00 | 0.00 | 67 | 1023.2 |
| 20260904045715 | 61 | 84 | 0.0 | 3.0 | 0.00 | 0.00 | 0.00 | 67 | 1023.2 |
| 20260904045511 | 61 | 92 | 0.0 | 3.0 | 0.00 | 0.00 | 0.00 | 67 | 1023.3 |
| 20260904045306 | 62 | 183 | 0.0 | 3.0 | 0.00 | 0.00 | 0.00 | 67 | 1023.2 |
| 20260904045059 | 62 | 127 | 0.0 | 3.0 | 0.00 | 0.00 | 0.00 | 66 | 1023.1 |
| 20260904044858 | 61 | 210 | 0.0 | 3.0 | 0.00 | 0.00 | 0.00 | 66 | 1023.1 |
| 20260904044657 | 61 | 236 | 0.0 | 3.0 | 0.00 | 0.00 | 0.00 | 67 | 1023.2 |
| 20260904044447 | 61 | 213 | 0.0 | 5.0 | 0.00 | 0.00 | 0.00 | 68 | 1023.2 |
| 20260904044244 | 61 | 82 | 0.0 | 5.0 | 0.00 | 0.00 | 0.00 | 68 | 1023.2 |
| 20260904044043 | 61 | 85 | 0.0 | 5.0 | 0.00 | 0.00 | 0.00 | 68 | 1023.2 |
| 20260904043835 | 61 | 103 | 1.0 | 5.0 | 0.00 | 0.00 | 0.00 | 68 | 1023.2 |
| 20260904043625 | 61 | 120 | 1.0 | 5.0 | 0.00 | 0.00 | 0.00 | 68 | 1023.3 |
| 20260904043423 | 61 | 169 | 2.0 | 5.0 | 0.00 | 0.00 | 0.00 | 68 | 1023.3 |
| 20260904043221 | 61 | 88 | 2.0 | 5.0 | 0.00 | 0.00 | 0.00 | 67 | 1023.2 |
| 20260904043021 | 62 | 129 | 2.0 | 5.0 | 0.00 | 0.00 | 0.00 | 67 | 1023.2 |
| 20260904042457 | 63 | 104 | 0.0 | 4.0 | 0.00 | 0.00 | 0.00 | 64 | 1023.3 |
| 20260904042256 | 64 | 97 | 0.0 | 3.0 | 0.00 | 0.00 | 0.00 | 62 | 1023.3 |
| 20260904042049 | 64 | 243 | 0.0 | 1.0 | 0.00 | 0.00 | 0.00 | 61 | 1023.3 |
| 20260904041839 | 64 | 254 | 0.0 | 0.0 | 0.00 | 0.00 | 0.00 | 60 | 1023.3 |
| 20260904041631 | 64 | 240 | 0.0 | 0.0 | 0.00 | 0.00 | 0.00 | 60 | 1023.3 |
| 20260904041425 | 65 | 239 | 0.0 | 0.0 | 0.00 | 0.00 | 0.00 | 60 | 1023.3 |
| 20260904041225 | 64 | 274 | 0.0 | 3.0 | 0.00 | 0.00 | 0.00 | 60 | 1023.4 |
| 20260904040653 | 64 | 247 | 0.0 | 3.0 | 0.00 | 0.00 | 0.00 | 61 | 1023.3 |
| 20260904040131 | 63 | 248 | 0.0 | 3.0 | 0.00 | 0.00 | 0.00 | 62 | 1023.4 |
| 20260904035928 | 63 | 230 | 0.0 | 2.0 | 0.00 | 0.00 | 0.00 | 62 | 1023.4 |
| 20260904035727 | 63 | 203 | 0.0 | 1.0 | 0.00 | 0.00 | 0.00 | 63 | 1023.3 |
| 20260904035517 | 63 | 63 | 0.0 | 0.0 | 0.00 | 0.00 | 0.00 | 63 | 1023.3 |
| 20260904035311 | 63 | 75 | 0.0 | 2.0 | 0.00 | 0.00 | 0.00 | 63 | 1023.5 |
| 20260904035101 | 63 | 93 | 0.0 | 2.0 | 0.00 | 0.00 | 0.00 | 63 | 1023.4 |
| 20260904034856 | 64 | 156 | 0.0 | 0.0 | 0.00 | 0.00 | 0.00 | 62 | 1023.4 |
| 20260904034652 | 64 | 101 | 0.0 | 1.0 | 0.00 | 0.00 | 0.00 | 61 | 1023.5 |
| 20260904034447 | 64 | 113 | 0.0 | 0.0 | 0.00 | 0.00 | 0.00 | 61 | 1023.4 |
| 20260904034244 | 64 | 113 | 0.0 | 1.0 | 0.00 | 0.00 | 0.00 | 61 | 1023.6 |
| 20260904033714 | 64 | 233 | 0.0 | 0.0 | 0.00 | 0.00 | 0.00 | 61 | 1023.6 |
| 20260904033508 | 64 | 233 | 0.0 | 0.0 | 0.00 | 0.00 | 0.00 | 60 | 1023.6 |
| 20260904033258 | 64 | 233 | 0.0 | 0.0 | 0.00 | 0.00 | 0.00 | 61 | 1023.5 |
| 20260904033052 | 64 | 229 | 0.0 | 0.0 | 0.00 | 0.00 | 0.00 | 61 | 1023.5 |
| 20260904032219 | 64 | 229 | 0.0 | 0.0 | 0.00 | 0.00 | 0.00 | 64 | 1023.7 |
| 20260904032011 | 64 | 229 | 0.0 | 0.0 | 0.00 | 0.00 | 0.00 | 64 | 1023.7 |
| 20260904031803 | 63 | 229 | 0.0 | 0.0 | 0.00 | 0.00 | 0.00 | 64 | 1023.7 |
| 20260904031558 | 63 | 229 | 0.0 | 0.0 | 0.00 | 0.00 | 0.00 | 64 | 1023.7 |
| 20260904031349 | 63 | 229 | 0.0 | 0.0 | 0.00 | 0.00 | 0.00 | 64 | 1023.7 |
| 20260904031142 | 63 | 227 | 0.0 | 0.0 | 0.00 | 0.00 | 0.00 | 64 | 1023.7 |
| 20260904030619 | 62 | 229 | 0.0 | 0.0 | 0.00 | 0.00 | 0.00 | 66 | 1023.7 |
| 20260904030407 | 62 | 229 | 0.0 | 0.0 | 0.00 | 0.00 | 0.00 | 67 | 1023.7 |
| 20260904030206 | 62 | 224 | 0.0 | 4.0 | 0.00 | 0.00 | 0.00 | 67 | 1023.7 |
| 20260904030006 | 61 | 220 | 0.0 | 4.0 | 0.00 | 0.00 | 0.00 | 69 | 1023.7 |
| 20260904025758 | 61 | 103 | 1.0 | 4.0 | 0.00 | 0.00 | 0.00 | 70 | 1023.7 |
| 20260904025556 | 61 | 96 | 2.0 | 4.0 | 0.00 | 0.00 | 0.00 | 70 | 1023.8 |
| 20260904025346 | 61 | 116 | 2.0 | 4.0 | 0.00 | 0.00 | 0.00 | 70 | 1023.7 |
| 20260904025138 | 61 | 94 | 2.0 | 5.0 | 0.00 | 0.00 | 0.00 | 70 | 1023.7 |
| 20260904024939 | 61 | 94 | 2.0 | 5.0 | 0.00 | 0.00 | 0.00 | 70 | 1023.8 |
| 20260904024413 | 61 | 107 | 2.0 | 5.0 | 0.00 | 0.00 | 0.00 | 69 | 1023.8 |
| 20260904024210 | 61 | 135 | 2.0 | 7.0 | 0.00 | 0.00 | 0.00 | 69 | 1023.8 |
| 20260904023323 | 61 | 111 | 3.0 | 7.0 | 0.00 | 0.00 | 0.00 | 70 | 1023.9 |
| 20260904023114 | 61 | 112 | 3.0 | 7.0 | 0.00 | 0.00 | 0.00 | 70 | 1023.9 |
| 20260904022908 | 61 | 123 | 3.0 | 7.0 | 0.00 | 0.00 | 0.00 | 70 | 1023.9 |
| 20260904022704 | 60 | 121 | 3.0 | 7.0 | 0.00 | 0.00 | 0.00 | 70 | 1024.1 |
| 20260904022133 | 60 | 124 | 2.0 | 5.0 | 0.00 | 0.00 | 0.00 | 70 | 1024.1 |
| 20260904021927 | 60 | 98 | 2.0 | 5.0 | 0.00 | 0.00 | 0.00 | 70 | 1024.1 |
| 20260904021354 | 61 | 110 | 2.0 | 4.0 | 0.00 | 0.00 | 0.00 | 70 | 1024.2 |
| 20260904021148 | 61 | 122 | 1.0 | 4.0 | 0.00 | 0.00 | 0.00 | 69 | 1024.2 |
| 20260904020939 | 61 | 126 | 1.0 | 4.0 | 0.00 | 0.00 | 0.00 | 68 | 1024.2 |
| 20260904020410 | 63 | 117 | 0.0 | 3.0 | 0.00 | 0.00 | 0.00 | 67 | 1024.2 |
| 20260904020205 | 64 | 77 | 0.0 | 3.0 | 0.00 | 0.00 | 0.00 | 67 | 1024.2 |
| 20260904020004 | 64 | 117 | 0.0 | 0.0 | 0.00 | 0.00 | 0.00 | 67 | 1024.2 |
| 20260904015437 | 63 | 154 | 0.0 | 0.0 | 0.00 | 0.00 | 0.00 | 67 | 1024.1 |
| 20260904014921 | 63 | 154 | 0.0 | 0.0 | 0.00 | 0.00 | 0.00 | 67 | 1024.2 |
| 20260904014716 | 63 | 154 | 0.0 | 0.0 | 0.00 | 0.00 | 0.00 | 67 | 1024.2 |
| 20260904014509 | 63 | 154 | 0.0 | 0.0 | 0.00 | 0.00 | 0.00 | 66 | 1024.3 |
| 20260904014309 | 63 | 154 | 0.0 | 0.0 | 0.00 | 0.00 | 0.00 | 67 | 1024.3 |
| 20260904014106 | 63 | 154 | 0.0 | 0.0 | 0.00 | 0.00 | 0.00 | 67 | 1024.2 |
| 20260904013905 | 64 | 154 | 0.0 | 0.0 | 0.00 | 0.00 | 0.00 | 67 | 1024.3 |
| 20260904013658 | 63 | 154 | 0.0 | 0.0 | 0.00 | 0.00 | 0.00 | 67 | 1024.3 |
| 20260904013449 | 63 | 154 | 0.0 | 0.0 | 0.00 | 0.00 | 0.00 | 67 | 1024.2 |
| 20260904012610 | 62 | 154 | 0.0 | 5.0 | 0.00 | 0.00 | 0.00 | 69 | 1024.3 |
| 20260904012407 | 62 | 148 | 0.0 | 5.0 | 0.00 | 0.00 | 0.00 | 70 | 1024.4 |
| 20260904012203 | 61 | 144 | 0.0 | 5.0 | 0.00 | 0.00 | 0.00 | 70 | 1024.4 |
| 20260904012001 | 61 | 160 | 1.0 | 5.0 | 0.00 | 0.00 | 0.00 | 70 | 1024.4 |
| 20260904011757 | 61 | 214 | 1.0 | 5.0 | 0.00 | 0.00 | 0.00 | 70 | 1024.5 |
| 20260904011549 | 61 | 96 | 2.0 | 5.0 | 0.00 | 0.00 | 0.00 | 69 | 1024.5 |
| 20260904011346 | 61 | 55 | 2.0 | 5.0 | 0.00 | 0.00 | 0.00 | 70 | 1024.5 |
| 20260904011143 | 61 | 105 | 2.0 | 5.0 | 0.00 | 0.00 | 0.00 | 69 | 1024.5 |
| 20260904010614 | 62 | 114 | 1.0 | 4.0 | 0.00 | 0.00 | 0.00 | 69 | 1024.5 |
| 20260904010055 | 63 | 125 | 0.0 | 3.0 | 0.00 | 0.00 | 0.00 | 67 | 1024.6 |
| 20260904005855 | 63 | 54 | 0.0 | 2.0 | 0.00 | 0.00 | 0.00 | 67 | 1024.6 |
| 20260904005653 | 63 | 89 | 0.0 | 1.0 | 0.00 | 0.00 | 0.00 | 67 | 1024.6 |
| 20260904005118 | 62 | 144 | 0.0 | 0.0 | 0.00 | 0.00 | 0.00 | 67 | 1024.6 |
| 20260904004912 | 63 | 144 | 0.0 | 0.0 | 0.00 | 0.00 | 0.00 | 67 | 1024.6 |
| 20260904004713 | 63 | 144 | 0.0 | 0.0 | 0.00 | 0.00 | 0.00 | 67 | 1024.6 |
| 20260904004512 | 63 | 144 | 0.0 | 0.0 | 0.00 | 0.00 | 0.00 | 67 | 1024.6 |
| 20260904004308 | 63 | 144 | 0.0 | 0.0 | 0.00 | 0.00 | 0.00 | 67 | 1024.7 |
| 20260904004106 | 63 | 144 | 0.0 | 0.0 | 0.00 | 0.00 | 0.00 | 67 | 1024.6 |
| 20260904003900 | 63 | 144 | 0.0 | 0.0 | 0.00 | 0.00 | 0.00 | 67 | 1024.7 |
| 20260904003653 | 63 | 144 | 0.0 | 0.0 | 0.00 | 0.00 | 0.00 | 67 | 1024.7 |
| 20260904003454 | 63 | 144 | 0.0 | 0.0 | 0.00 | 0.00 | 0.00 | 66 | 1024.7 |
| 20260904003248 | 63 | 144 | 0.0 | 0.0 | 0.00 | 0.00 | 0.00 | 67 | 1024.7 |
| 20260904003038 | 63 | 144 | 0.0 | 0.0 | 0.00 | 0.00 | 0.00 | 66 | 1024.8 |
| 20260904002829 | 63 | 145 | 0.0 | 0.0 | 0.00 | 0.00 | 0.00 | 66 | 1024.8 |
| 20260904002621 | 64 | 144 | 0.0 | 0.0 | 0.00 | 0.00 | 0.00 | 66 | 1024.9 |
| 20260904002414 | 64 | 144 | 0.0 | 0.0 | 0.00 | 0.00 | 0.00 | 65 | 1024.9 |
| 20260904002208 | 64 | 144 | 0.0 | 0.0 | 0.00 | 0.00 | 0.00 | 65 | 1024.8 |
| 20260904001958 | 64 | 144 | 0.0 | 0.0 | 0.00 | 0.00 | 0.00 | 65 | 1024.8 |
| 20260904001750 | 64 | 144 | 0.0 | 0.0 | 0.00 | 0.00 | 0.00 | 65 | 1024.9 |
| 20260904001548 | 64 | 144 | 0.0 | 0.0 | 0.00 | 0.00 | 0.00 | 65 | 1024.9 |
| 20260904001339 | 64 | 144 | 0.0 | 0.0 | 0.00 | 0.00 | 0.00 | 66 | 1024.8 |
| 20260904001135 | 64 | 144 | 0.0 | 0.0 | 0.00 | 0.00 | 0.00 | 66 | 1024.8 |
| 20260904000928 | 64 | 144 | 0.0 | 1.0 | 0.00 | 0.00 | 0.00 | 66 | 1024.8 |
| 20260904000722 | 63 | 130 | 0.0 | 1.0 | 0.00 | 0.00 | 0.00 | 67 | 1024.8 |
| 20260904000516 | 64 | 131 | 0.0 | 1.0 | 0.00 | 0.00 | 0.00 | 66 | 1024.9 |
| 20260904000305 | 64 | 119 | 0.0 | 1.0 | 0.00 | 0.00 | 0.00 | 66 | 1025.0 |
| 20260904000055 | 64 | 135 | 0.0 | 0.0 | 0.00 | 0.00 | 0.00 | 65 | 1025.0 |
| 20260903235855 | 64 | 135 | 0.0 | 1.0 | 0.00 | 0.00 | 0.00 | 65 | 1024.9 |
| 20260903235649 | 64 | 135 | 0.0 | 1.0 | 0.00 | 0.00 | 0.00 | 65 | 1024.8 |
| 20260903235441 | 64 | 134 | 0.0 | 0.0 | 0.00 | 0.00 | 0.00 | 65 | 1024.8 |
| 20260903235234 | 64 | 133 | 0.0 | 1.0 | 0.00 | 0.00 | 0.00 | 65 | 1024.7 |
| 20260903235034 | 64 | 127 | 0.0 | 3.0 | 0.00 | 0.00 | 0.00 | 65 | 1024.7 |
| 20260903234510 | 64 | 132 | 0.0 | 3.0 | 0.00 | 0.00 | 0.00 | 67 | 1024.8 |
| 20260903234310 | 63 | 132 | 0.0 | 3.0 | 0.00 | 0.00 | 0.00 | 68 | 1024.8 |
| 20260903233742 | 62 | 140 | 1.0 | 5.0 | 0.00 | 0.00 | 0.00 | 68 | 1024.9 |
| 20260903233532 | 62 | 75 | 2.0 | 5.0 | 0.00 | 0.00 | 0.00 | 68 | 1024.9 |
| 20260903233008 | 62 | 110 | 3.0 | 5.0 | 0.00 | 0.00 | 0.00 | 67 | 1024.9 |
| 20260903232808 | 62 | 117 | 2.0 | 5.0 | 0.00 | 0.00 | 0.00 | 67 | 1024.9 |
| 20260903232608 | 62 | 125 | 2.0 | 5.0 | 0.00 | 0.00 | 0.00 | 67 | 1024.9 |
| 20260903232405 | 62 | 134 | 2.0 | 5.0 | 0.00 | 0.00 | 0.00 | 67 | 1024.9 |
| 20260903232201 | 62 | 103 | 1.0 | 3.0 | 0.00 | 0.00 | 0.00 | 68 | 1025.1 |
| 20260903231950 | 62 | 91 | 1.0 | 3.0 | 0.00 | 0.00 | 0.00 | 68 | 1025.0 |
| 20260903231745 | 63 | 91 | 1.0 | 3.0 | 0.00 | 0.00 | 0.00 | 68 | 1025.0 |
| 20260903231536 | 63 | 128 | 0.0 | 3.0 | 0.00 | 0.00 | 0.00 | 67 | 1025.0 |
| 20260903231331 | 63 | 109 | 0.0 | 3.0 | 0.00 | 0.00 | 0.00 | 67 | 1025.1 |
| 20260903231122 | 63 | 119 | 0.0 | 3.0 | 0.00 | 0.00 | 0.00 | 66 | 1025.1 |
| 20260903230922 | 64 | 103 | 0.0 | 0.0 | 0.00 | 0.00 | 0.00 | 67 | 1025.0 |
| 20260903230717 | 64 | 81 | 0.0 | 1.0 | 0.00 | 0.00 | 0.00 | 67 | 1025.0 |
| 20260903230515 | 64 | 134 | 0.0 | 1.0 | 0.00 | 0.00 | 0.00 | 67 | 1025.0 |
| 20260903230313 | 64 | 156 | 0.0 | 0.0 | 0.00 | 0.00 | 0.00 | 67 | 1025.0 |
| 20260903230104 | 64 | 193 | 0.0 | 0.0 | 0.00 | 0.00 | 0.00 | 67 | 1024.9 |
| 20260903225540 | 64 | 193 | 0.0 | 0.0 | 0.00 | 0.00 | 0.00 | 67 | 1025.0 |
| 20260903225338 | 64 | 193 | 0.0 | 0.0 | 0.00 | 0.00 | 0.00 | 66 | 1025.0 |
| 20260903225138 | 64 | 193 | 0.0 | 0.0 | 0.00 | 0.00 | 0.00 | 66 | 1025.0 |
| 20260903224929 | 64 | 193 | 0.0 | 0.0 | 0.00 | 0.00 | 0.00 | 66 | 1025.0 |
| 20260903224728 | 64 | 193 | 0.0 | 0.0 | 0.00 | 0.00 | 0.00 | 66 | 1025.0 |
| 20260903224157 | 65 | 193 | 0.0 | 0.0 | 0.00 | 0.00 | 0.00 | 65 | 1025.1 |
| 20260903223950 | 65 | 193 | 0.0 | 0.0 | 0.00 | 0.00 | 0.00 | 64 | 1025.2 |
| 20260903223746 | 65 | 193 | 0.0 | 0.0 | 0.00 | 0.00 | 0.00 | 64 | 1025.2 |
| 20260903223536 | 65 | 193 | 0.0 | 0.0 | 0.00 | 0.00 | 0.00 | 64 | 1025.3 |
| 20260903223327 | 65 | 193 | 0.0 | 0.0 | 0.00 | 0.00 | 0.00 | 63 | 1025.2 |
| 20260903223122 | 65 | 193 | 0.0 | 0.0 | 0.00 | 0.00 | 0.00 | 63 | 1025.2 |
| 20260903222923 | 66 | 193 | 0.0 | 0.0 | 0.00 | 0.00 | 0.00 | 63 | 1025.2 |
| 20260903222723 | 66 | 193 | 0.0 | 0.0 | 0.00 | 0.00 | 0.00 | 63 | 1025.2 |
| 20260903222522 | 66 | 193 | 0.0 | 0.0 | 0.00 | 0.00 | 0.00 | 63 | 1025.2 |
| 20260903222316 | 65 | 203 | 0.0 | 0.0 | 0.00 | 0.00 | 0.00 | 63 | 1025.2 |
| 20260903222111 | 65 | 203 | 0.0 | 0.0 | 0.00 | 0.00 | 0.00 | 63 | 1025.2 |
| 20260903221909 | 65 | 203 | 0.0 | 0.0 | 0.00 | 0.00 | 0.00 | 63 | 1025.2 |
| 20260903221707 | 65 | 205 | 0.0 | 0.0 | 0.00 | 0.00 | 0.00 | 64 | 1025.2 |
| 20260903221507 | 65 | 205 | 0.0 | 0.0 | 0.00 | 0.00 | 0.00 | 63 | 1025.2 |
| 20260903220625 | 65 | 248 | 0.0 | 0.0 | 0.00 | 0.00 | 0.00 | 64 | 1025.3 |
| 20260903220416 | 65 | 248 | 0.0 | 0.0 | 0.00 | 0.00 | 0.00 | 64 | 1025.3 |
| 20260903220205 | 65 | 247 | 0.0 | 0.0 | 0.00 | 0.00 | 0.00 | 64 | 1025.3 |
| 20260903220001 | 65 | 248 | 0.0 | 0.0 | 0.00 | 0.00 | 0.00 | 64 | 1025.3 |
| 20260903215801 | 65 | 247 | 0.0 | 0.0 | 0.00 | 0.00 | 0.00 | 64 | 1025.3 |
| 20260903215553 | 65 | 248 | 0.0 | 0.0 | 0.00 | 0.00 | 0.00 | 64 | 1025.3 |
| 20260903215028 | 65 | 248 | 0.0 | 0.0 | 0.00 | 0.00 | 0.00 | 64 | 1025.4 |
| 20260903214824 | 65 | 248 | 0.0 | 0.0 | 0.00 | 0.00 | 0.00 | 64 | 1025.4 |
| 20260903214618 | 65 | 248 | 0.0 | 0.0 | 0.00 | 0.00 | 0.00 | 64 | 1025.5 |
| 20260903214413 | 65 | 248 | 0.0 | 0.0 | 0.00 | 0.00 | 0.00 | 64 | 1025.4 |
| 20260903214213 | 65 | 247 | 0.0 | 0.0 | 0.00 | 0.00 | 0.00 | 64 | 1025.4 |
| 20260903214002 | 65 | 248 | 0.0 | 0.0 | 0.00 | 0.00 | 0.00 | 64 | 1025.5 |
| 20260903213753 | 65 | 248 | 0.0 | 0.0 | 0.00 | 0.00 | 0.00 | 64 | 1025.5 |
| 20260903213544 | 65 | 248 | 0.0 | 0.0 | 0.00 | 0.00 | 0.00 | 65 | 1025.5 |
| 20260903213338 | 65 | 248 | 0.0 | 0.0 | 0.00 | 0.00 | 0.00 | 65 | 1025.5 |
| 20260903213132 | 64 | 248 | 0.0 | 0.0 | 0.00 | 0.00 | 0.00 | 65 | 1025.6 |
| 20260903212926 | 64 | 248 | 0.0 | 0.0 | 0.00 | 0.00 | 0.00 | 65 | 1025.5 |
| 20260903212725 | 64 | 248 | 0.0 | 0.0 | 0.00 | 0.00 | 0.00 | 65 | 1025.5 |
| 20260903212515 | 64 | 248 | 0.0 | 0.0 | 0.00 | 0.00 | 0.00 | 65 | 1025.6 |
| 20260903212312 | 65 | 248 | 0.0 | 0.0 | 0.00 | 0.00 | 0.00 | 65 | 1025.5 |
| 20260903212112 | 65 | 248 | 0.0 | 0.0 | 0.00 | 0.00 | 0.00 | 66 | 1025.5 |
| 20260903211904 | 65 | 248 | 0.0 | 0.0 | 0.00 | 0.00 | 0.00 | 66 | 1025.4 |
| 20260903211703 | 65 | 248 | 0.0 | 0.0 | 0.00 | 0.00 | 0.00 | 66 | 1025.4 |
| 20260903211453 | 65 | 247 | 0.0 | 0.0 | 0.00 | 0.00 | 0.00 | 65 | 1025.5 |
| 20260903211244 | 65 | 248 | 0.0 | 0.0 | 0.00 | 0.00 | 0.00 | 65 | 1025.5 |
| 20260903211045 | 65 | 248 | 0.0 | 0.0 | 0.00 | 0.00 | 0.00 | 65 | 1025.5 |
| 20260903210836 | 65 | 248 | 0.0 | 0.0 | 0.00 | 0.00 | 0.00 | 65 | 1025.5 |
| 20260903210630 | 65 | 248 | 0.0 | 0.0 | 0.00 | 0.00 | 0.00 | 65 | 1025.6 |
| 20260903210422 | 65 | 247 | 0.0 | 0.0 | 0.00 | 0.00 | 0.00 | 65 | 1025.6 |
| 20260903210216 | 65 | 248 | 0.0 | 0.0 | 0.00 | 0.00 | 0.00 | 65 | 1025.5 |